This is the latest recevied weather packets stored in our database for station/object WX8ASH-13. If no packets are shown the sender has not sent any weather packets the latest 10 day(s).
| Time | Temp. | Humidity | Pressure | Rain* | Wind** | Luminosity | Snow |
|---|---|---|---|---|---|---|---|
| 1777994737 | 20° C | 66% | 1008.2 hPa | 0 mm | - | - | - |
| 1777994438 | 20° C | 64% | 1008 hPa | 0 mm | - | - | - |
| 1777994138 | 19.44° C | 67% | 1007.8 hPa | 0 mm | - | - | - |
| 1777993837 | 19.44° C | 66% | 1007.7 hPa | 0 mm | - | - | - |
| 1777993539 | 19.44° C | 67% | 1007.7 hPa | 0 mm | - | - | - |
| 1777993237 | 18.89° C | 67% | 1007.7 hPa | 0 mm | - | - | - |
| 1777992938 | 18.89° C | 68% | 1007.9 hPa | 0 mm | - | - | - |
| 1777992637 | 18.89° C | 67% | 1007.9 hPa | 0 mm | - | - | - |
| 1777992336 | 18.89° C | 68% | 1007.8 hPa | 0 mm | - | - | - |
| 1777992039 | 18.89° C | 68% | 1007.7 hPa | 0 mm | - | - | - |
| 1777991736 | 18.89° C | 69% | 1007.7 hPa | 0 mm | - | - | - |
| 1777991438 | 18.89° C | 71% | 1007.8 hPa | 0 mm | - | - | - |
| 1777991137 | 18.89° C | 70% | 1008 hPa | 0 mm | - | - | - |
| 1777990836 | 18.33° C | 71% | 1008 hPa | 0 mm | - | - | - |
| 1777990536 | 18.33° C | 73% | 1008 hPa | 0 mm | - | - | - |
| 1777989937 | 18.33° C | 73% | 1007.8 hPa | 0 mm | - | - | - |
| 1777989635 | 17.78° C | 74% | 1007.9 hPa | 0 mm | - | - | - |
| 1777989337 | 17.78° C | 73% | 1007.8 hPa | 0 mm | - | - | - |
| 1777989034 | 17.78° C | 74% | 1008 hPa | 0 mm | - | - | - |
| 1777988737 | 17.78° C | 76% | 1008.1 hPa | 0 mm | - | - | - |
| 1777988434 | 17.22° C | 76% | 1008.1 hPa | 0 mm | - | - | - |
| 1777988134 | 17.22° C | 79% | 1008.2 hPa | 0 mm | - | - | - |
| 1777987837 | 16.67° C | 79% | 1008.1 hPa | 0 mm | - | - | - |
| 1777987534 | 16.67° C | 80% | 1008.2 hPa | 0 mm | - | - | - |
| 1777987240 | 16.67° C | 81% | 1008.3 hPa | 0 mm | - | - | - |
* Rain latest hour (hover to see other rain measurements)
** Current wind speed in m/s (hover to see current wind gust speed)